Regional Weather Roundup
Issued by NWS Kansas City/Pleasant Hill, MO

Home | Current Version | Previous Version | Text Only | Print | Product List | Glossary On
Versions: 1 2 3 4 5 6 7 8 9 10 11 12 13 14 15 16 17 18 19 20 21 22 23 24 25 26 27 28 29 30 31 32 33 34 35 36 37 38 39 40 41 42 43 44 45 46 47 48 49 50
000
ASUS43 KEAX 300411
RWREAX

WEATHER ROUNDUP FOR EASTERN KANSAS AND NORTHWEST MISSOURI
NATIONAL WEATHER SERVICE KANSAS CITY/PLEASANT HILL MO
1100 PM CDT FRI AUG 29 2014

KSZ040-057-103>105-MOZ028-029-037-043-300500-
...KANSAS CITY METROPOLITAN AREA...

CITY           SKY/WX    TMP DP  RH WIND       PRES   REMARKS
K.C. INTL      HVY RAIN  70  67  90 SW6       29.85R
K.C. DOWNTOWN  LGT RAIN  73  68  84 VRB6      29.84R
LEES SUMMIT    PTCLDY    72  68  87 S7        29.87R
OLATHE - IXD   PTCLDY    77  65  66 SW12      29.87R
OLATHE - OJC   PTCLDY    75  65  70 S5        29.86S
LAWRENCE       PTCLDY    76  68  76 SW12      29.85R

$$

MOZ001>008-011>017-020>025-030>033-038>040-044>046-053-054-300500-
...NORTHERN AND CENTRAL MISSOURI...

CITY           SKY/WX    TMP DP  RH WIND       PRES   REMARKS
ST. JOSEPH     PTCLDY    71  66  84 SW3       29.84R
MOSBY          TSTM      68  66  94 W9G28     29.87R
WHITEMAN AFB   CLEAR     72  67  84 S6        29.87R
CLINTON        CLEAR     75  68  78 CALM      29.88S
SEDALIA        CLEAR     75  69  81 S9        29.89S
WARSAW         NOT AVBL
MARSHALL       PTCLDY    75  72  88 S5        29.87S
CHILLICOTHE      N/A     73  66  78 S8        29.84R
MOBERLY        CLEAR     73  68  83 S8        29.87F
KIRKSVILLE     PTCLDY    69  67  93 S8        29.85F

$$

MOZ041-047>049-056>058-063>065-088>090-097-300500-
...EASTERN AND SOUTHERN MISSOURI...

CITY           SKY/WX    TMP DP  RH WIND       PRES   REMARKS
ST. LOUIS INTL CLOUDY    81  69  67 S13G22    29.92R
SPIRIT OF STL  CLOUDY    78  69  73 S8        29.90R
COLUMBIA       PTCLDY    73  70  90 S8        29.90S
JEFFERSON CITY PTCLDY    75  69  81 S6        29.89S
MEXICO         MOCLDY   N/A N/A N/A S8        29.89F
HANNIBAL       CLOUDY    73  70  88 S6        29.88S
ROLLA          MOCLDY    72  67  84 S10       29.93R
LEBANON        CLEAR     72  68  88 S8        29.96R
OSAGE BEACH    PTCLDY    72  66  83 S7        29.92S
SPRINGFIELD    CLEAR     74  67  78 S12       29.94R
BRANSON        PTCLDY    72  68  88 CALM      29.98R
NEVADA         PTCLDY    73  66  78 S6        29.91R
JOPLIN         MOCLDY    77  66  68 S12       29.92R
WEST PLAINS    CLOUDY    73  68  84 S6        30.00R

$$

IAZ060-094-KSZ022-034>040-054-083-096-NEZ052-066-093-300500-
...KANSAS...SOUTHEAST NEBRASKA AND IOWA...

CITY           SKY/WX    TMP DP  RH WIND       PRES   REMARKS
TOPEKA         MOCLDY    75  72  90 S3        29.85R
MANHATTAN      MOCLDY    72  64  76 CALM      29.87R
EMPORIA        CLEAR     73  65  75 S9        29.89R
CHANUTE        PTCLDY    74  66  76 S6        29.90R
WICHITA        PTCLDY    70  66  87 S5        29.90R
OMAHA          PTCLDY    69  65  86 W7        29.83R
LINCOLN        PTCLDY    69  66  90 W5        29.87R
FALLS CITY     PTCLDY    71  69  93 NW5       29.83R
LAMONI         TSTM      65  64  97 NW6       29.86R FOG
DES MOINES     MOCLDY    70  66  87 S6        29.79R

$$




USA.gov is the U.S. government's official web portal to all federal, state and local government web resources and services.